Regional Weather Roundup
Issued by NWS Grand Forks, ND

Home | Current Version | Previous Version | Text Only | Print | Product List | Glossary Off
Versions: 1 2 3 4 5 6 7 8 9 10 11 12 13 14 15 16 17 18 19 20 21 22 23 24 25 26 27 28 29 30 31 32 33 34 35 36 37 38 39 40 41 42 43 44 45 46 47 48 49 50

568
ASUS43 KFGF 260331
RWRFGF
PRAIRIE TO PINES  WEATHER ROUNDUP
NATIONAL WEATHER SERVICE EASTERN NORTH DAKOTA/GRAND FORKS ND
1000 PM CDT SAT MAR 25 2017

 **SATELLITE DATA USED TO AUGMENT SKY COVER AT AUTOMATED STATIONS**
 *****  WEATHER ACROSS EASTERN NORTH DAKOTA  *****

CITY           SKY/WX    TMP DP  RH WIND       PRES   REMARKS
GRAND FORKS    FAIR      33  33 100 S6        30.01F
GRAND FRKS AFB FAIR      33  33  98 S6        30.01S
DEVILS LAKE    FAIR      35  33  92 S10       29.96S
FARGO          FAIR      33  30  88 CALM      30.03S
WAHPETON ARPT  FAIR      32  30  93 S6        30.04S
$$

 ***** WEATHER ACROSS CENTRAL AND WESTERN NORTH DAKOTA  *****

CITY           SKY/WX    TMP DP  RH WIND       PRES   REMARKS
BISMARCK       CLOUDY    46  35  65 SE7       29.93R
MINOT          CLOUDY    48  35  60 S8        29.89R
JAMESTOWN      FAIR      33  31  92 SE13      29.96F WCI  24
MINOT AFB      CLOUDY    42  36  78 S5        29.88R
GARRISON         N/A     40  33  76 SE3       29.90S
WILLISTON      FAIR      49  31  49 CALM      29.88R
DICKINSON      CLOUDY    49  27  42 N8        29.88R
HETTINGER      CLOUDY    48  34  58 SE6       29.90R
$$

 *****  OTHER AIRPORT OBSERVATIONS IN OUR AREA  *****

CITY           SKY/WX    TMP DP  RH WIND       PRES   REMARKS
WALHALLA       NOT AVBL
GRAFTON AIRPOR FAIR      32  32 100 S7        30.02S
VALLEY CITY AR FAIR      32  32 100 S9        30.01S WCI  24
CANDO          NOT AVBL
CAVALIER APRT    N/A     34  32  93 S7        29.99R
GWINNER        CLOUDY    36  34  93 MISG      30.01F
SHEYENNE NWR     N/A     29  29  99 CALM      29.95S
ROLLA          CLOUDY    34  34 100 S10       29.92S
 ***** THE ABOVE OBSERVATIONS ARE NON NWS ARE NOT QUALITY
       CONTROLLED AND MAY MIS-REPORT RAIN FOR SNOW...
$$

  *****  WEATHER ACROSS NORTHERN MINNESOTA  *****

CITY           SKY/WX    TMP DP  RH WIND       PRES   REMARKS
FLAG ISLAND    FAIR      36  28  75 S18       30.02F
WARROAD        FAIR      37  30  75 S12       30.03S
ROSEAU         FAIR      37  30  75 S12       30.01F
HALLOCK        FAIR      34  34 100 S7        30.01S
THF RVR FALLS  FAIR     N/A N/A N/A S3        30.03F
BAUDETTE       FAIR      36  27  69 SE12      30.05S
WASKISH        FAIR      34  28  80 SE7       30.07F
CROOKSTON      FAIR      34  32  93 S3        30.04S
STEPHEN NDAWN    N/A     34  34 100 S9          N/A
GREENBUSH NDAW   N/A     34  34 100 S7          N/A
$$
  *****  WEATHER ACROSS CENTRAL AND WEST MINNESOTA  *****

CITY           SKY/WX    TMP DP  RH WIND       PRES   REMARKS
FOSSTON        FAIR      34  28  80 SE8       30.03F
BEMIDJI        FAIR      31  28  86 E10       30.05S WCI  22
PARK RAPIDS    FAIR      35  26  69 SE8       30.04S
ELBOW LAKE     CLOUDY    36  32  86 E9        30.03F
WADENA         FAIR      34  28  80 E9        30.03F
DETROIT LAKES  FAIR      37  30  75 SE5       30.04F
MOORHEAD       FAIR      32  30  93 CALM      30.04F
FERGUS FALLS   FAIR      32  28  86 S3        30.07S
MORRIS MN      CLOUDY    37  36  93 SE9       30.02F
STAPLES        CLOUDY    36  28  75 E5        30.05F
$$
  *****  WEATHER ELSEWHERE ACROSS MINNESOTA  *****

CITY           SKY/WX    TMP DP  RH WIND       PRES   REMARKS
DULUTH         FRZ DRZL  31  30  96 E14       30.13S FOG     WCI  21
INTRNTL FALLS  FAIR      33  25  72 SE9G20    30.09F
ELY            CLOUDY    30  27  86 SE12      30.13F WCI  21
CLOQUET        CLOUDY    30  28  93 E8        30.11F FOG     WCI  23
WHEATON        CLOUDY    37  34  87 SE6       30.05F
BRAINERD       CLOUDY    34  28  79 E9        30.08F
HIBBING        CLOUDY    30  27  88 SE12      30.12F WCI  20
ALEXANDRIA     CLOUDY    39  34  82 SE9       30.04F
SAINT CLOUD    CLOUDY    41  33  73 E8        30.05F
MINNEAPOLIS    CLOUDY    40  34  79 E9        30.05F
$$

  *****  WEATHER ACROSS SOUTH DAKOTA  *****

CITY           SKY/WX    TMP DP  RH WIND       PRES   REMARKS
SIOUX FALLS    CLOUDY    40  37  89 E12       29.99S
BROOKINGS      MIX PCPN  37  36  96 E10       29.99F FOG
WATERTOWN      CLOUDY    35  34  96 E8        29.98F FOG
HURON          CLOUDY    41  38  89 SE8       29.98S
SISSETON         N/A     37  35  92 S12       30.02S
ABERDEEN       CLOUDY    36  32  85 SE9       30.00R
MITCHELL       CLOUDY    40  40 100 SE7       29.99S FOG
PIERRE         FAIR      42  34  73 SE17      29.90R
MOBRIDGE       FAIR      45  32  60 SE13      29.90R
RAPID CITY     FAIR      53  34  48 NW12      29.81S
$$

  *****  SOME WEATHER IN NEARBY STATES *****

CITY           SKY/WX    TMP DP  RH WIND       PRES   REMARKS
GLASGOW MT     FAIR      47  29  49 SE8       29.88R
GREAT FALLS MT FAIR      35  20  54 SW9       29.90R
CHEYENNE WY    MOCLDY    49  27  42 S9        29.87S
SCOTTSBLUFF NE FAIR      53  33  46 E8        29.83R
OMAHA NE       CLOUDY    42  37  82 N10       29.95R
DES MOINES IA  CLOUDY    43  42  97 NE10      29.91S FOG
DAVENPORT IA   CLOUDY    45  44  97 E16       29.90F FOG
CHICAGO IL     LGT RAIN  46  43  89 NE10      29.97F FOG
EAU CLAIRE WI  CLOUDY    37  34  89 E9        30.06F
LA CROSSE WI   CLOUDY    38  35  89 E13       30.03F
$$

  *****  SOME NATIONAL WEATHER *****

CITY           SKY/WX    TMP DP  RH WIND       PRES   REMARKS
LA GUARDIA NY  CLOUDY    45  38  76 NE14      30.38R
RALEIGH NC     MOCLDY    65  50  58 S10       30.23S
ATLANTA GA     MOCLDY    68  50  52 SE8       30.11R
NEW ORLEANS LA FAIR      66  64  93 S9        30.01R
OKLAHOMA CITY  FAIR      51  43  74 E7        29.92R
ALBUQUERQUE NM MOCLDY    63  20  19 W13       29.86R
SALT LAKE CITY MOCLDY    43  38  82 NW5       30.02R
LOS ANGELES CA FAIR      59  54  83 W15       30.03S
BOISE ID       FAIR      51  27  39 CALM      29.99F
SEATTLE WA     MOCLDY    47  36  65 S3        30.07F
$$

*** WEATHER ACROSS MANITOBA...SASKATCHEWAN AND ONTARIO ***
                ***ONTARIO***

CITY           SKY/WX    TMP DP  RH WIND       PRES   REMARKS
GERALDTON      PTCLDY    28   1  31 SE7       30.25F WCI  21
THUNDER BAY    PTCLDY    28  25  86 E7        30.25F WCI  21
SIOUX LOOKOUT  MOCLDY    36  14  41 S13G20    30.07F
TORONTO        LGT RAIN  36  32  87 E14G21    30.34F
BIG TROUT LK   CLOUDY    27   9  46 SE13G18   30.09F WCI  16
PICKLE LAKE    NOT AVBL
DRYDEN         CLOUDY    37  23  56 S13G20    30.05F
KENORA         PTCLDY    34  25  69 S13       30.02F WCI  25
$$
                *** MANITOBA***

CITY           SKY/WX    TMP DP  RH WIND       PRES   REMARKS
BRANDON        CLOUDY    34  30  86 SW3       29.89R
DAUPHIN        CLEAR     37  34  87 W16       29.85R
ISLAND LAKE    CLOUDY    37  25  60 S13G21    29.87F
PILOT MOUND      N/A     34  32  93 S14         N/A  WCI  24
THE PAS        CLOUDY    27  23  86 W18G26    29.79R WCI  13
THOMPSON       HAIL      30  28  93 E3        29.72S
WINNIPEG       MOCLDY    34  32  93 S16G29    29.96F WCI  23
LYNN LAKE      FLURRIES  19  18  93 NE10      29.79S WCI   8
CHURCHILL      LGT SNOW  14   9  79 SE13      30.09F DRFTSNOWWCI   0
GILLAM         LGT SNOW  28  27  93 E10G17    29.89F VSB 3/4 WCI  19
$$
                ***SASKATCHEWAN***

CITY           SKY/WX    TMP DP  RH WIND       PRES   REMARKS
ESTEVAN        PTCLDY    37  34  87 N8        29.88
KINDERSLEY     PTCLDY    41  34  75 NE14      29.79R
LLOYDMINSTER   PTCLDY    28  28 100 E3        29.79R
PRINCE ALBERT  CLOUDY    34  30  86 W3        29.86R
REGINA         MOCLDY    41  34  75 SE3       29.87R
YORKTON        CLEAR     36  32  87 W5        29.87R
N. BATTLEFORD  CLEAR     30 N/A N/A E8        29.84S WCI  23
LA RONGE       MOCLDY    27  21  80 NE3       29.86R
SASKATOON      PTCLDY    28  28 100 E7        29.86R WCI  21
SWIFT CURRENT  CLOUDY    41  28  60 SW13      29.81S
$$
NOTE: THESE ARE AUTOMATED STATIONS WITH LIMITED QUALITY CONTROL
      "FAIR" INDICATES FEW OR NO CLOUDS BELOW 12,000 FEET WITH NO
      SIGNIFICANT WEATHER AND/OR OBSTRUCTIONS TO VISIBILITY.
      SKY/WX - SKY CONDITION AND SIGNIFICANT WEATHER.
      TMP - AIR TEMPERATURE.    DP   - DEWPOINT TEMPERATURE.
      RH  - RELATIVE HUMIDITY.  PRES - PRESSURE.
      HX  - HEAT INDEX.         WCI  - WIND CHILL INDEX.
$




USA.gov is the U.S. government's official web portal to all federal, state and local government web resources and services.